User: anonymous   Login
Location: Unspecified
(0.0000°N, 0.0000°E)
Time: 07:15:51
(UTC+00:00)
Language:

SO-50 - Orbit

View from above orbital plane
View from above orbital plane
View from above satellite
View from above satellite

Ground track
Ground track

The orbit data is extracted from the following two-line orbital elements,

1 27607U 02058C   18114.86965921  .00000058  00000-0  29071-4 0  9994
2 27607  64.5560 253.0058 0059193 340.5084  19.3754 14.75442153825093
Epoch (UTC): 24 April 2018 20:52:18
Eccentricity: 0.0059193
inclination: 64.5560°
perigee height: 602 km
apogee height: 685 km
right ascension of ascending node: 253.0058°
argument of perigee: 340.5084°
revolutions per day: 14.75442153
mean anomaly at epoch: 19.3754°
orbit number at epoch: 82509

The dashed part of the orbit path shows where the satellite is in the earth's shadow,  

DLR